Home   Weather   Viña del Mar   Past weeks

Flag for Chile Past Weather in Viña del Mar, Chile — Yesterday and Last 2 Weeks

73 °F

Passing clouds.

Feels Like: 76 °F
Forecast: 53 / 65 °F
Wind: 8 mph from South

Location: Pudahuel

Current Time: Oct 25, 2016 at 4:13:21 PM

Latest Report: Oct 25, 2016 at 3:00 PM

Visibility: N/A

Pressure: 30.07 "Hg

Humidity: 29%

Dew Point: 39 °F

Location of Viña del MarLocation

Past Weather in Viña del Mar — Graph


Viña del Mar Temperature Yesterday

Maximum temperature yesterday: 70 °F (at 4:00 PM)
Minimum temperature yesterday: 50 °F (at 4:00 AM)
Average temperature yesterday: 58 °F

High & Low Weather Summary for the Past Weeks

High82 °F (Oct 21, 3:00 PM)94% (Oct 13, 8:00 AM)30.21 "Hg (Oct 13, 8:00 AM)
Low39 °F (Oct 19, 5:00 AM)19% (Oct 21, 3:00 PM)29.83 "Hg (Oct 21, 3:00 PM)
Average58 °F62%30.04 "Hg
* Reported Oct 10 3:00 PM — Oct 25 3:00 PM, Viña del Mar, Weather by CustomWeather, © 2016

Note: Actual official high and low records may vary slightly from our data, if they occured in-between our weather recording intervals... More about our weather records


Viña del Mar Weather History for the Previous 24 Hours

Scroll right to see more
Time TempWeatherWind HumidityBarometerVisibility
3:00 PM
Tue, Oct 25
73 °FPassing clouds.8 mph29%30.07 "HgN/A
2:00 PM72 °FPassing clouds.8 mph31%30.09 "HgN/A
1:00 PM70 °FPassing clouds.8 mph38%30.12 "HgN/A
12:00 PM64 °FSunny.5 mph46%30.15 "Hg10 mi
11:00 AM61 °FSunny.2 mph59%30.18 "Hg10 mi
10:00 AM57 °FPassing clouds.3 mph63%30.18 "HgN/A
9:00 AM52 °FClear.7 mph77%30.21 "Hg5 mi
8:00 AM46 °FClear.2 mph82%30.21 "Hg5 mi
7:00 AM46 °FPassing clouds.3 mph82%30.21 "Hg5 mi
6:00 AM48 °FPassing clouds.6 mph82%30.18 "HgN/A
5:00 AM46 °FPassing clouds.3 mph82%30.15 "HgN/A
4:00 AM46 °FClear.5 mph82%30.15 "Hg10 mi
3:00 AM50 °FClear.2 mph76%30.18 "Hg10 mi
2:00 AM52 °FClear.6 mph72%30.18 "Hg10 mi
1:00 AM54 °FClear.2 mph67%30.18 "Hg10 mi
12:00 AM55 °FClear.6 mph63%30.18 "Hg10 mi
11:00 PM
Mon, Oct 24
57 °FPassing clouds.8 mph59%30.18 "HgN/A
10:00 PM59 °FClear.6 mph51%30.18 "HgN/A
9:00 PM59 °FPassing clouds.13 mph51%30.18 "HgN/A
8:00 PM61 °FBroken clouds.15 mph52%30.15 "HgN/A
7:00 PM63 °FScattered clouds.17 mph52%30.15 "HgN/A
6:00 PM66 °FScattered clouds.17 mph46%30.15 "HgN/A
5:00 PM68 °FPartly sunny.15 mph40%30.12 "HgN/A
4:00 PM70 °FPartly sunny.13 mph38%30.12 "HgN/A
Weather by CustomWeather, © 2016

See weather overviewHow to use our weather pages